FLI155 EGPE-EKVG

Flight info

Callsign FLI155
Flight time 0h 49m
Altitude 36000
Route BONBY DCT RAKUP DCT H6107 DCT SUDUR
Aircraft A320/M-SDE3FGHIRWY/LB1

Departure

Time 2026-04-29 16:16
Airport Inverness Airport (EGPE)

Arrival

Time 2026-04-29 17:05
Airport Vágar Airport (EKVG)
Time Latitude Longitude Altitude Speed Heading
2026-04-29 16:01 57.53916 -4.06265 36 ft 0 kts 276°
2026-04-29 16:05 57.53916 -4.06264 36 ft 0 kts 276°
2026-04-29 16:13 57.53917 -4.06266 34 ft 1 kts 294°
2026-04-29 16:13 57.53923 -4.06250 34 ft 2 kts 81°
2026-04-29 16:13 57.53913 -4.06191 34 ft 6 kts 136°
2026-04-29 16:13 57.53801 -4.06182 36 ft 24 kts 177°
2026-04-29 16:14 57.53748 -4.06067 39 ft 3 kts 119°
2026-04-29 16:14 57.53745 -4.06059 39 ft 3 kts 122°
2026-04-29 16:14 57.53714 -4.05939 40 ft 14 kts 91°
2026-04-29 16:14 57.53734 -4.05875 39 ft 0 kts 49°
2026-04-29 16:15 57.53738 -4.05865 39 ft 15 kts 49°
2026-04-29 16:15 57.54032 -4.05233 38 ft 111 kts 49°
2026-04-29 16:15 57.54639 -4.03875 465 ft 139 kts 51°
2026-04-29 16:16 57.55274 -4.02373 1163 ft 158 kts 50°
2026-04-29 16:16 57.56040 -4.00825 1979 ft 172 kts 37°
2026-04-29 16:16 57.57241 -4.00275 2610 ft 198 kts 348°
2026-04-29 16:16 57.58565 -4.01407 3248 ft 224 kts 328°
2026-04-29 16:17 57.59979 -4.02993 4043 ft 250 kts 327°
2026-04-29 16:17 57.61535 -4.04742 5016 ft 269 kts 327°
2026-04-29 16:17 57.63171 -4.06550 6043 ft 277 kts 328°
2026-04-29 16:17 57.64861 -4.08386 7057 ft 283 kts 329°
2026-04-29 16:18 57.66590 -4.10235 8005 ft 290 kts 330°
2026-04-29 16:18 57.68368 -4.12121 8938 ft 297 kts 330°
2026-04-29 16:18 57.70188 -4.14049 9895 ft 304 kts 330°
2026-04-29 16:18 57.72028 -4.16001 10706 ft 315 kts 330°
2026-04-29 16:19 57.74013 -4.18110 11136 ft 340 kts 330°
2026-04-29 16:19 57.76143 -4.20377 11516 ft 364 kts 330°
2026-04-29 16:19 57.78412 -4.22797 11983 ft 381 kts 330°
2026-04-29 16:19 57.80738 -4.25282 12632 ft 389 kts 330°
2026-04-29 16:20 57.83103 -4.27814 13321 ft 394 kts 330°
2026-04-29 16:20 57.85494 -4.30379 14017 ft 399 kts 329°
2026-04-29 16:20 57.87913 -4.32969 14690 ft 402 kts 330°
2026-04-29 16:20 57.90436 -4.35130 15325 ft 406 kts 340°
2026-04-29 16:21 57.93124 -4.36825 15983 ft 409 kts 342°
2026-04-29 16:21 57.95836 -4.38526 16620 ft 413 kts 342°
2026-04-29 16:21 57.98572 -4.40243 17259 ft 416 kts 342°
2026-04-29 16:21 58.01333 -4.41982 17901 ft 420 kts 342°
2026-04-29 16:22 58.04110 -4.43743 18527 ft 424 kts 342°
2026-04-29 16:22 58.06915 -4.45532 19097 ft 427 kts 341°
2026-04-29 16:22 58.09739 -4.47339 19673 ft 430 kts 341°
2026-04-29 16:22 58.12542 -4.49133 20221 ft 432 kts 341°
2026-04-29 16:23 58.15397 -4.50961 20782 ft 434 kts 341°
2026-04-29 16:23 58.18267 -4.52804 21337 ft 437 kts 341°
2026-04-29 16:23 58.21155 -4.54663 21863 ft 439 kts 341°
2026-04-29 16:23 58.24057 -4.56528 22375 ft 442 kts 341°
2026-04-29 16:24 58.26972 -4.58400 22883 ft 444 kts 341°
2026-04-29 16:24 58.29911 -4.60291 23363 ft 446 kts 341°
2026-04-29 16:24 58.32858 -4.62192 23830 ft 449 kts 341°
2026-04-29 16:24 58.35820 -4.64112 24229 ft 451 kts 341°
2026-04-29 16:25 58.38759 -4.66018 24606 ft 453 kts 341°
2026-04-29 16:25 58.41742 -4.67957 25012 ft 454 kts 341°
2026-04-29 16:25 58.44745 -4.69910 25396 ft 455 kts 341°
2026-04-29 16:25 58.47746 -4.71866 25762 ft 457 kts 340°
2026-04-29 16:26 58.50758 -4.73831 26124 ft 459 kts 340°
2026-04-29 16:26 58.53783 -4.75809 26477 ft 460 kts 340°
2026-04-29 16:26 58.56825 -4.77801 26815 ft 462 kts 340°
2026-04-29 16:26 58.59868 -4.79797 27144 ft 464 kts 340°
2026-04-29 16:27 58.62927 -4.81806 27466 ft 465 kts 340°
2026-04-29 16:27 58.65953 -4.83798 27767 ft 467 kts 340°
2026-04-29 16:27 58.69034 -4.85829 28063 ft 469 kts 340°
2026-04-29 16:27 58.72123 -4.87868 28350 ft 470 kts 340°
2026-04-29 16:28 58.75221 -4.89915 28636 ft 472 kts 340°
2026-04-29 16:28 58.78327 -4.91973 28893 ft 473 kts 340°
2026-04-29 16:28 58.81444 -4.94048 29138 ft 474 kts 340°
2026-04-29 16:28 58.84564 -4.96128 29400 ft 475 kts 340°
2026-04-29 16:29 58.87681 -4.98207 29732 ft 473 kts 340°
2026-04-29 16:29 58.90746 -5.00254 30064 ft 472 kts 340°
2026-04-29 16:29 58.93850 -5.02334 30432 ft 471 kts 339°
2026-04-29 16:29 58.96935 -5.04404 30747 ft 469 kts 339°
2026-04-29 16:30 59.00013 -5.06472 31058 ft 467 kts 339°
2026-04-29 16:30 59.03079 -5.08538 31353 ft 466 kts 339°
2026-04-29 16:30 59.06134 -5.10603 31661 ft 464 kts 339°
2026-04-29 16:30 59.09184 -5.12668 31928 ft 464 kts 339°
2026-04-29 16:31 59.12233 -5.14731 32206 ft 463 kts 339°
2026-04-29 16:31 59.15273 -5.16790 32508 ft 462 kts 339°
2026-04-29 16:31 59.18264 -5.18819 32811 ft 461 kts 339°
2026-04-29 16:31 59.21287 -5.20878 33116 ft 459 kts 339°
2026-04-29 16:32 59.24297 -5.22936 33444 ft 457 kts 339°
2026-04-29 16:32 59.27292 -5.24984 33771 ft 456 kts 339°
2026-04-29 16:32 59.30279 -5.27025 34085 ft 454 kts 339°
2026-04-29 16:32 59.33258 -5.29069 34360 ft 453 kts 338°
2026-04-29 16:33 59.39201 -5.33172 34425 ft 452 kts 338°
2026-04-29 16:33 59.45088 -5.37242 34430 ft 451 kts 338°
2026-04-29 16:34 59.51007 -5.41354 34430 ft 451 kts 338°
2026-04-29 16:34 59.56933 -5.45479 34428 ft 455 kts 338°
2026-04-29 16:35 59.62925 -5.49659 34426 ft 457 kts 338°
2026-04-29 16:35 59.68873 -5.53839 34426 ft 457 kts 338°
2026-04-29 16:36 59.74865 -5.58058 34423 ft 457 kts 338°
2026-04-29 16:36 59.80854 -5.62282 34429 ft 457 kts 337°
2026-04-29 16:37 59.86836 -5.66517 34423 ft 456 kts 337°
2026-04-29 16:37 59.91810 -5.70039 34420 ft 456 kts 337°
2026-04-29 16:38 59.98748 -5.75016 34412 ft 456 kts 337°
2026-04-29 16:38 60.04720 -5.79323 34431 ft 456 kts 337°
2026-04-29 16:39 60.10700 -5.83630 34421 ft 457 kts 337°
2026-04-29 16:39 60.16534 -5.87837 34407 ft 457 kts 337°
2026-04-29 16:40 60.22571 -5.92216 34402 ft 457 kts 336°
2026-04-29 16:40 60.28557 -5.96577 34400 ft 458 kts 336°
2026-04-29 16:41 60.34543 -6.00960 34414 ft 458 kts 337°
2026-04-29 16:41 60.40533 -6.05368 34402 ft 458 kts 337°
2026-04-29 16:42 60.46533 -6.09785 34401 ft 459 kts 336°
2026-04-29 16:42 60.52501 -6.14199 34387 ft 460 kts 336°
2026-04-29 16:43 60.55502 -6.16427 33909 ft 456 kts 336°
2026-04-29 16:43 60.58467 -6.18632 33636 ft 453 kts 336°
2026-04-29 16:43 60.61418 -6.20830 33371 ft 451 kts 336°
2026-04-29 16:43 60.64363 -6.23027 33104 ft 450 kts 336°
2026-04-29 16:44 60.67296 -6.25224 32781 ft 448 kts 336°
2026-04-29 16:44 60.70211 -6.27406 32148 ft 444 kts 336°
2026-04-29 16:44 60.73098 -6.29572 31532 ft 440 kts 336°
2026-04-29 16:44 60.75923 -6.31698 30936 ft 437 kts 336°
2026-04-29 16:45 60.78768 -6.33839 30338 ft 435 kts 336°
2026-04-29 16:45 60.81596 -6.35975 29703 ft 431 kts 336°
2026-04-29 16:45 60.84398 -6.38098 29124 ft 427 kts 336°
2026-04-29 16:45 60.87168 -6.40204 28554 ft 423 kts 336°
2026-04-29 16:46 60.89915 -6.42292 28007 ft 419 kts 335°
2026-04-29 16:46 60.92647 -6.44371 27433 ft 417 kts 335°
2026-04-29 16:46 60.95350 -6.46432 26884 ft 413 kts 335°
2026-04-29 16:46 60.98000 -6.48458 26372 ft 410 kts 335°
2026-04-29 16:47 61.00642 -6.50615 25855 ft 405 kts 330°
2026-04-29 16:47 61.03169 -6.53100 25366 ft 402 kts 329°
2026-04-29 16:47 61.05682 -6.55576 24881 ft 399 kts 329°
2026-04-29 16:47 61.08179 -6.58039 24402 ft 396 kts 329°
2026-04-29 16:48 61.10664 -6.60488 23916 ft 394 kts 329°
2026-04-29 16:48 61.13131 -6.62926 23409 ft 391 kts 329°
2026-04-29 16:48 61.15573 -6.65346 22952 ft 387 kts 329°
2026-04-29 16:48 61.17987 -6.67745 22513 ft 383 kts 328°
2026-04-29 16:49 61.20379 -6.70133 22037 ft 380 kts 328°
2026-04-29 16:49 61.22718 -6.72474 21584 ft 377 kts 328°
2026-04-29 16:49 61.25076 -6.74835 21123 ft 375 kts 328°
2026-04-29 16:49 61.27417 -6.77183 20665 ft 373 kts 328°
2026-04-29 16:50 61.29742 -6.79517 20197 ft 371 kts 328°
2026-04-29 16:50 61.32065 -6.81850 19731 ft 370 kts 328°
2026-04-29 16:50 61.34381 -6.84182 19263 ft 369 kts 328°
2026-04-29 16:50 61.36689 -6.86504 18798 ft 369 kts 328°
2026-04-29 16:51 61.39000 -6.88830 18297 ft 368 kts 328°
2026-04-29 16:51 61.41267 -6.91115 17840 ft 366 kts 328°
2026-04-29 16:51 61.43555 -6.93430 17384 ft 364 kts 327°
2026-04-29 16:51 61.45825 -6.95736 16934 ft 362 kts 327°
2026-04-29 16:52 61.48087 -6.98035 16492 ft 361 kts 327°
2026-04-29 16:52 61.50356 -7.00268 16028 ft 362 kts 332°
2026-04-29 16:52 61.52714 -7.02156 15574 ft 362 kts 333°
2026-04-29 16:52 61.55069 -7.04031 15113 ft 362 kts 333°
2026-04-29 16:53 61.57418 -7.05894 14656 ft 361 kts 333°
2026-04-29 16:53 61.59762 -7.07758 14208 ft 360 kts 332°
2026-04-29 16:53 61.61983 -7.09929 13720 ft 355 kts 327°
2026-04-29 16:53 61.64183 -7.12236 13249 ft 352 kts 327°
2026-04-29 16:54 61.66369 -7.14532 12797 ft 350 kts 327°
2026-04-29 16:54 61.68549 -7.16782 12334 ft 349 kts 330°
2026-04-29 16:54 61.70823 -7.18586 11856 ft 351 kts 338°
2026-04-29 16:54 61.73206 -7.19794 11395 ft 353 kts 345°
2026-04-29 16:55 61.75655 -7.20374 10906 ft 356 kts 352°
2026-04-29 16:55 61.78129 -7.20395 10585 ft 351 kts 356°
2026-04-29 16:55 61.80494 -7.20344 10424 ft 329 kts 355°
2026-04-29 16:55 61.82708 -7.20308 9951 ft 318 kts 355°
2026-04-29 16:56 61.84899 -7.20282 9763 ft 314 kts 355°
2026-04-29 16:56 61.87098 -7.20258 9277 ft 317 kts 355°
2026-04-29 16:56 61.89286 -7.20227 8880 ft 312 kts 355°
2026-04-29 16:56 61.91431 -7.20341 8190 ft 305 kts 348°
2026-04-29 16:57 61.93472 -7.21238 7519 ft 295 kts 336°
2026-04-29 16:57 61.95332 -7.22891 6852 ft 286 kts 325°
2026-04-29 16:57 61.96965 -7.25172 6154 ft 277 kts 315°
2026-04-29 16:57 61.98320 -7.27896 5529 ft 266 kts 304°
2026-04-29 16:58 61.99400 -7.30967 5177 ft 247 kts 295°
2026-04-29 16:58 62.00159 -7.34001 5126 ft 221 kts 287°
2026-04-29 16:58 62.00666 -7.36946 5058 ft 202 kts 280°
2026-04-29 16:58 62.01070 -7.39637 5021 ft 180 kts 279°
2026-04-29 16:59 62.01436 -7.42082 4887 ft 169 kts 279°
2026-04-29 16:59 62.01780 -7.44405 4711 ft 161 kts 279°
2026-04-29 16:59 62.02110 -7.46661 4483 ft 157 kts 279°
2026-04-29 16:59 62.02429 -7.48832 4321 ft 151 kts 279°
2026-04-29 17:00 62.02758 -7.50903 4146 ft 145 kts 284°
2026-04-29 17:00 62.03258 -7.52758 3981 ft 150 kts 297°
2026-04-29 17:00 62.03986 -7.54406 3796 ft 157 kts 311°
2026-04-29 17:00 62.04928 -7.55664 3625 ft 163 kts 327°
2026-04-29 17:01 62.06044 -7.56242 3443 ft 170 kts 350°
2026-04-29 17:01 62.07231 -7.55915 3247 ft 176 kts 14°
2026-04-29 17:01 62.08300 -7.54636 3028 ft 179 kts 40°
2026-04-29 17:01 62.09066 -7.52576 2822 ft 177 kts 66°
2026-04-29 17:02 62.09409 -7.50101 2613 ft 172 kts 91°
2026-04-29 17:02 62.09318 -7.47667 2414 ft 164 kts 113°
2026-04-29 17:02 62.09024 -7.45348 2110 ft 159 kts 114°
2026-04-29 17:02 62.08751 -7.43121 1832 ft 152 kts 115°
2026-04-29 17:03 62.08479 -7.40943 1608 ft 152 kts 116°
2026-04-29 17:03 62.08206 -7.38773 1384 ft 152 kts 115°
2026-04-29 17:03 62.07951 -7.36596 1158 ft 150 kts 112°
2026-04-29 17:03 62.07704 -7.34462 979 ft 146 kts 115°
2026-04-29 17:04 62.07398 -7.32451 760 ft 143 kts 115°
2026-04-29 17:04 62.07056 -7.30470 467 ft 141 kts 123°
2026-04-29 17:04 62.06596 -7.28669 290 ft 128 kts 121°
2026-04-29 17:04 62.06293 -7.27452 291 ft 52 kts 117°
2026-04-29 17:05 62.06183 -7.27060 276 ft 10 kts 122°
2026-04-29 17:05 62.06197 -7.27060 276 ft 7 kts 297°
2026-04-29 17:05 62.06229 -7.27198 280 ft 13 kts 297°
2026-04-29 17:05 62.06285 -7.27422 290 ft 19 kts 297°
2026-04-29 17:06 62.06353 -7.27697 298 ft 26 kts 298°
2026-04-29 17:06 62.06437 -7.28038 293 ft 27 kts 297°
2026-04-29 17:06 62.06495 -7.28147 288 ft 4 kts 18°
2026-04-29 17:06 62.06534 -7.28116 287 ft 7 kts 21°
2026-04-29 17:07 62.06559 -7.28098 288 ft 3 kts 15°
2026-04-29 17:07 62.06623 -7.28088 289 ft 10 kts
2026-04-29 17:07 62.06651 -7.28021 290 ft 4 kts 84°
2026-04-29 17:07 62.06638 -7.27906 290 ft 8 kts 83°
2026-04-29 17:08 62.06668 -7.27866 290 ft 5 kts 29°
2026-04-29 17:08 62.06675 -7.27858 290 ft 0 kts 28°
2026-04-29 17:08 62.06675 -7.27859 289 ft 0 kts 28°
2026-04-29 17:09 62.06674 -7.27859 289 ft 0 kts 28°
2026-04-29 17:28 62.06674 -7.27860 289 ft 0 kts 28°
2026-04-29 17:33 62.06673 -7.27860 289 ft 0 kts 28°